,,PA_Meas_PMT16A,,PR_Meas_QMR101_102,,RH_Meas_QMH101,,SR_Meas_QMS101,,TA_Meas_QMH101,,GenWind,,GenWind,
time,status,PA,status,PR,status,RH,status,SR,status,TA,status,DirAvg,status,SpdAvg,
2013-04-23, 00:00:04,VALID,918.165,VALID,0,VALID,96.5277,VALID,0,VALID,21.2827,VALID,163,VALID,0,
2013-04-23, 00:01:04,VALID,918.142,VALID,0,VALID,96.5124,VALID,0,VALID,21.3038,VALID,143,VALID,0,
2013-04-23, 00:02:04,VALID,918.131,VALID,0,VALID,96.5353,VALID,0,VALID,21.2843,VALID,167,VALID,0,
2013-04-23, 00:03:04,VALID,918.104,VALID,0,VALID,96.5353,VALID,0,VALID,21.2843,VALID,180,VALID,0,
2013-04-23, 00:04:04,VALID,918.077,VALID,0,VALID,96.5506,VALID,0,VALID,21.2664,VALID,138,VALID,0,
2013-04-23, 00:05:04,VALID,918.082,VALID,0,VALID,96.5506,VALID,0,VALID,21.2453,VALID,135,VALID,0,
2013-04-23, 00:06:04,VALID,918.064,VALID,0,VALID,96.5506,VALID,0,VALID,21.2242,VALID,167,VALID,0,
2013-04-23, 00:07:04,VALID,918.039,VALID,0,VALID,96.5658,VALID,0,VALID,21.2437,VALID,157,VALID,0,
2013-04-23, 00:08:04,VALID,918.06,VALID,0,VALID,96.5887,VALID,0,VALID,21.2437,VALID,114,VALID,0,
2013-04-23, 00:09:04,VALID,918.05,VALID,0,VALID,96.5963,VALID,0,VALID,21.2453,VALID,164,VALID,0,
2013-04-23, 00:10:04,VALID,918.024,VALID,0,VALID,96.5887,VALID,0,VALID,21.2031,VALID,159,VALID,0,
2013-04-23, 00:11:04,VALID,917.978,VALID,0,VALID,96.6039,VALID,0,VALID,21.2047,VALID,144,VALID,0,
2013-04-23, 00:12:04,VALID,917.963,VALID,0,VALID,96.5811,VALID,0,VALID,21.1852,VALID,143,VALID,0,
2013-04-23, 00:13:04,VALID,917.963,VALID,0,VALID,96.5963,VALID,0,VALID,21.1657,VALID,164,VALID,0,
2013-04-23, 00:14:04,VALID,917.945,VALID,0,VALID,96.6192,VALID,0,VALID,21.1868,VALID,162,VALID,0,
2013-04-23, 00:15:04,VALID,917.917,VALID,0,VALID,96.6115,VALID,0,VALID,21.1673,VALID,131,VALID,0,
2013-04-23, 00:16:04,VALID,917.957,VALID,0,VALID,96.6115,VALID,0,VALID,21.1673,VALID,150,VALID,0,
2013-04-23, 00:17:04,VALID,917.885,VALID,0,VALID,96.6344,VALID,0,VALID,21.1055,VALID,148,VALID,0,
2013-04-23, 00:18:04,VALID,917.911,VALID,0,VALID,96.642,VALID,0,VALID,21.1266,VALID,159,VALID,0,
2013-04-23, 00:19:04,VALID,917.888,VALID,0,VALID,96.6344,VALID,0,VALID,21.1282,VALID,162,VALID,0,
2013-04-23, 00:20:04,VALID,917.891,VALID,0,VALID,96.642,VALID,0,VALID,21.1087,VALID,165,VALID,0,
2013-04-23, 00:21:04,VALID,917.866,VALID,0,VALID,96.642,VALID,0,VALID,21.1298,VALID,174,VALID,0,
2013-04-23, 00:22:04,VALID,917.838,VALID,0,VALID,96.6344,VALID,0,VALID,21.0681,VALID,167,VALID,0,
2013-04-23, 00:23:04,VALID,917.806,VALID,0,VALID,96.642,VALID,0,VALID,21.0665,VALID,175,VALID,0,
2013-04-23, 00:24:04,VALID,917.773,VALID,0,VALID,96.6573,VALID,0,VALID,21.0681,VALID,189,VALID,0,
2013-04-23, 00:25:04,VALID,917.775,VALID,0,VALID,96.6649,VALID,0,VALID,21.0681,VALID,189,VALID,0,
2013-04-23, 00:26:04,VALID,917.737,VALID,0,VALID,96.6497,VALID,0,VALID,21.0681,VALID,136,VALID,0,
2013-04-23, 00:27:04,VALID,917.748,VALID,0,VALID,96.6725,VALID,0,VALID,21.0486,VALID,136,VALID,0,
2013-04-23, 00:28:04,VALID,917.705,VALID,0,VALID,96.6573,VALID,0,VALID,21.0486,VALID,136,VALID,0,
2013-04-23, 00:29:04,VALID,917.715,VALID,0,VALID,96.642,VALID,0,VALID,21.0291,VALID,136,VALID,0,
2013-04-23, 00:30:04,VALID,917.671,VALID,0,VALID,96.6725,VALID,0,VALID,21.0486,VALID,136,VALID,0,
2013-04-23, 00:31:04,VALID,917.649,VALID,0,VALID,96.6573,VALID,0,VALID,21.0291,VALID,136,VALID,0,
2013-04-23, 00:32:04,VALID,917.661,VALID,0,VALID,96.6649,VALID,0,VALID,21.0291,VALID,136,VALID,0,
2013-04-23, 00:33:04,VALID,917.621,VALID,0,VALID,96.6497,VALID,0,VALID,21.0096,VALID,136,VALID,0,
2013-04-23, 00:34:04,VALID,917.636,VALID,0,VALID,96.6725,VALID,0,VALID,21.0291,VALID,136,VALID,0,
2013-04-23, 00:35:04,VALID,917.649,VALID,0,VALID,96.6802,VALID,0,VALID,21.0096,VALID,136,VALID,0,
2013-04-23, 00:36:04,VALID,917.611,VALID,0,VALID,96.6497,VALID,0,VALID,21.0307,VALID,136,VALID,0,
2013-04-23, 00:37:04,VALID,917.59,VALID,0,VALID,96.6725,VALID,0,VALID,21.0307,VALID,145,VALID,0,
2013-04-23, 00:38:04,VALID,917.6,VALID,0,VALID,96.6649,VALID,0,VALID,20.969,VALID,146,VALID,0,
2013-04-23, 00:39:04,VALID,917.574,VALID,0,VALID,96.6649,VALID,0,VALID,20.9901,VALID,146,VALID,0,
2013-04-23, 00:40:04,VALID,917.566,VALID,0,VALID,96.642,VALID,0,VALID,20.9706,VALID,146,VALID,0,
2013-04-23, 00:41:04,VALID,917.562,VALID,0,VALID,96.6573,VALID,0,VALID,20.9706,VALID,146,VALID,0,
2013-04-23, 00:42:04,VALID,917.523,VALID,0,VALID,96.642,VALID,0,VALID,20.9917,VALID,146,VALID,0,
2013-04-23, 00:43:04,VALID,917.519,VALID,0,VALID,96.6192,VALID,0,VALID,20.9511,VALID,146,VALID,0,
2013-04-23, 00:44:04,VALID,917.522,VALID,0,VALID,96.6344,VALID,0,VALID,20.9511,VALID,146,VALID,0,
2013-04-23, 00:45:04,VALID,917.479,VALID,0,VALID,96.6039,VALID,0,VALID,20.912,VALID,133,VALID,0,
2013-04-23, 00:46:04,VALID,917.476,VALID,0,VALID,96.5658,VALID,0,VALID,20.873,VALID,99,VALID,0,
2013-04-23, 00:47:04,VALID,917.493,VALID,0,VALID,96.5658,VALID,0,VALID,20.8925,VALID,99,VALID,0,
2013-04-23, 00:48:04,VALID,917.457,VALID,0,VALID,96.5582,VALID,0,VALID,20.8925,VALID,101,VALID,0,
2013-04-23, 00:49:04,VALID,917.443,VALID,0,VALID,96.5429,VALID,0,VALID,20.8925,VALID,104,VALID,0,
2013-04-23, 00:50:04,VALID,917.434,VALID,0,VALID,96.5353,VALID,0,VALID,20.912,VALID,104,VALID,0,
2013-04-23, 00:51:04,VALID,917.414,VALID,0,VALID,96.5506,VALID,0,VALID,20.912,VALID,104,VALID,0,
2013-04-23, 00:52:04,VALID,917.365,VALID,0,VALID,96.4972,VALID,0,VALID,20.8925,VALID,52,VALID,0,
2013-04-23, 00:53:04,VALID,917.308,VALID,0,VALID,96.4667,VALID,0,VALID,20.8714,VALID,52,VALID,0,
2013-04-23, 00:54:04,VALID,917.302,VALID,0,VALID,96.4591,VALID,0,VALID,20.8535,VALID,52,VALID,0,
2013-04-23, 00:55:04,VALID,917.29,VALID,0,VALID,96.4819,VALID,0,VALID,20.8746,VALID,52,VALID,0,
2013-04-23, 00:56:04,VALID,917.246,VALID,0,VALID,96.4819,VALID,0,VALID,20.834,VALID,52,VALID,0,
2013-04-23, 00:57:04,VALID,917.227,VALID,0,VALID,96.4819,VALID,0,VALID,20.8551,VALID,52,VALID,0,
2013-04-23, 00:58:04,VALID,917.199,VALID,0,VALID,96.5048,VALID,0,VALID,20.834,VALID,52,VALID,0,
2013-04-23, 00:59:04,VALID,917.226,VALID,0,VALID,96.5429,VALID,0,VALID,20.834,VALID,52,VALID,0,
2013-04-23, 01:00:04,VALID,917.214,VALID,0,VALID,96.5506,VALID,0,VALID,20.834,VALID,52,VALID,0,
2013-04-23, 01:01:04,VALID,917.198,VALID,0,VALID,96.5658,VALID,0,VALID,20.834,VALID,52,VALID,0,
2013-04-23, 01:02:04,VALID,917.161,VALID,0,VALID,96.5734,VALID,0,VALID,20.8535,VALID,52,VALID,0,
2013-04-23, 01:03:04,VALID,917.164,VALID,0,VALID,96.6115,VALID,0,VALID,20.8941,VALID,52,VALID,0,
2013-04-23, 01:04:04,VALID,917.156,VALID,0,VALID,96.5963,VALID,0,VALID,20.873,VALID,52,VALID,0,
2013-04-23, 01:05:04,VALID,917.165,VALID,0,VALID,96.6115,VALID,0,VALID,20.8941,VALID,52,VALID,0,
2013-04-23, 01:06:04,VALID,917.148,VALID,0,VALID,96.642,VALID,0,VALID,20.873,VALID,52,VALID,0,
2013-04-23, 01:07:04,VALID,917.153,VALID,0,VALID,96.6192,VALID,0,VALID,20.873,VALID,52,VALID,0,
2013-04-23, 01:08:04,VALID,917.106,VALID,0,VALID,96.6268,VALID,0,VALID,20.8746,VALID,52,VALID,0,
2013-04-23, 01:09:04,VALID,917.057,VALID,0,VALID,96.642,VALID,0,VALID,20.8145,VALID,52,VALID,0,
2013-04-23, 01:10:04,VALID,917.076,VALID,0,VALID,96.6192,VALID,0,VALID,20.8161,VALID,52,VALID,0,
2013-04-23, 01:11:04,VALID,917.059,VALID,0,VALID,96.6268,VALID,0,VALID,20.7755,VALID,52,VALID,0,
2013-04-23, 01:12:04,VALID,917.011,VALID,0,VALID,96.642,VALID,0,VALID,20.756,VALID,52,VALID,0,
2013-04-23, 01:13:04,VALID,916.99,VALID,0,VALID,96.6497,VALID,0,VALID,20.7771,VALID,52,VALID,0,
2013-04-23, 01:14:04,VALID,916.945,VALID,0,VALID,96.6344,VALID,0,VALID,20.7185,VALID,52,VALID,0,
2013-04-23, 01:15:04,VALID,916.939,VALID,0,VALID,96.6344,VALID,0,VALID,20.639,VALID,52,VALID,0,
2013-04-23, 01:16:04,VALID,916.844,VALID,0,VALID,96.642,VALID,0,VALID,20.6975,VALID,52,VALID,0,
2013-04-23, 01:17:04,VALID,916.847,VALID,0,VALID,96.6649,VALID,0,VALID,20.7381,VALID,52,VALID,0,
2013-04-23, 01:18:04,VALID,916.809,VALID,0,VALID,96.6725,VALID,0,VALID,20.7365,VALID,52,VALID,0,
2013-04-23, 01:19:04,VALID,916.78,VALID,0,VALID,96.6954,VALID,0,VALID,20.717,VALID,52,VALID,0,
2013-04-23, 01:20:04,VALID,916.8,VALID,0,VALID,96.6954,VALID,0,VALID,20.7365,VALID,52,VALID,0,
2013-04-23, 01:21:04,VALID,916.772,VALID,0,VALID,96.703,VALID,0,VALID,20.7365,VALID,52,VALID,0,
2013-04-23, 01:22:04,VALID,916.761,VALID,0,VALID,96.703,VALID,0,VALID,20.717,VALID,52,VALID,0,
2013-04-23, 01:23:04,VALID,916.724,VALID,0,VALID,96.7183,VALID,0,VALID,20.7365,VALID,52,VALID,0,
2013-04-23, 01:24:04,VALID,916.719,VALID,0,VALID,96.7183,VALID,0,VALID,20.7576,VALID,52,VALID,0,
2013-04-23, 01:25:04,VALID,916.667,VALID,0,VALID,96.7488,VALID,0,VALID,20.7381,VALID,52,VALID,0,
2013-04-23, 01:26:04,VALID,916.66,VALID,0,VALID,96.7183,VALID,0,VALID,20.699,VALID,52,VALID,0,
2013-04-23, 01:27:04,VALID,916.635,VALID,0,VALID,96.7335,VALID,0,VALID,20.678,VALID,52,VALID,0,
2013-04-23, 01:28:04,VALID,916.591,VALID,0,VALID,96.7335,VALID,0,VALID,20.6975,VALID,52,VALID,0,
2013-04-23, 01:29:04,VALID,916.573,VALID,0,VALID,96.7488,VALID,0,VALID,20.6959,VALID,52,VALID,0,
2013-04-23, 01:30:04,VALID,916.539,VALID,0,VALID,96.7716,VALID,0,VALID,20.7349,VALID,52,VALID,0,
2013-04-23, 01:31:04,VALID,916.522,VALID,0,VALID,96.7869,VALID,0,VALID,20.7771,VALID,52,VALID,0,
2013-04-23, 01:32:04,VALID,916.485,VALID,0,VALID,96.7716,VALID,0,VALID,20.7966,VALID,52,VALID,0,
2013-04-23, 01:33:04,VALID,916.464,VALID,0,VALID,96.7945,VALID,0,VALID,20.756,VALID,52,VALID,0,
2013-04-23, 01:34:04,VALID,916.473,VALID,0,VALID,96.7716,VALID,0,VALID,20.717,VALID,52,VALID,0,
2013-04-23, 01:35:04,VALID,916.448,VALID,0,VALID,96.7793,VALID,0,VALID,20.6975,VALID,52,VALID,0,
2013-04-23, 01:36:04,VALID,916.435,VALID,0,VALID,96.7716,VALID,0,VALID,20.6975,VALID,52,VALID,0,
2013-04-23, 01:37:04,VALID,916.392,VALID,0,VALID,96.7564,VALID,0,VALID,20.7201,VALID,52,VALID,0,
2013-04-23, 01:38:04,VALID,916.375,VALID,0,VALID,96.7793,VALID,0,VALID,20.6358,VALID,52,VALID,0,
2013-04-23, 01:39:04,VALID,916.34,VALID,0,VALID,96.7793,VALID,0,VALID,20.678,VALID,52,VALID,0,
2013-04-23, 01:40:04,VALID,916.367,VALID,0,VALID,96.7945,VALID,0,VALID,20.699,VALID,52,VALID,0,
2013-04-23, 01:41:04,VALID,916.367,VALID,0,VALID,96.7945,VALID,0,VALID,20.678,VALID,52,VALID,0,
2013-04-23, 01:42:04,VALID,916.387,VALID,0,VALID,96.8021,VALID,0,VALID,20.6795,VALID,52,VALID,0,
2013-04-23, 01:43:04,VALID,916.379,VALID,0,VALID,96.8021,VALID,0,VALID,20.7185,VALID,52,VALID,0,
2013-04-23, 01:44:04,VALID,916.365,VALID,0,VALID,96.8098,VALID,0,VALID,20.6959,VALID,52,VALID,0,
2013-04-23, 01:45:04,VALID,916.362,VALID,0,VALID,96.8174,VALID,0,VALID,20.717,VALID,52,VALID,0,
2013-04-23, 01:46:04,VALID,916.36,VALID,0,VALID,96.8098,VALID,0,VALID,20.717,VALID,52,VALID,0,
2013-04-23, 01:47:04,VALID,916.36,VALID,0,VALID,96.8326,VALID,0,VALID,20.699,VALID,52,VALID,0,
2013-04-23, 01:48:04,VALID,916.378,VALID,0,VALID,96.8174,VALID,0,VALID,20.678,VALID,52,VALID,0,
2013-04-23, 01:49:04,VALID,916.337,VALID,0,VALID,96.825,VALID,0,VALID,20.66,VALID,52,VALID,0,
2013-04-23, 01:50:04,VALID,916.339,VALID,0,VALID,96.825,VALID,0,VALID,20.6194,VALID,52,VALID,0,
2013-04-23, 01:51:04,VALID,916.348,VALID,0,VALID,96.8098,VALID,0,VALID,20.621,VALID,52,VALID,0,
2013-04-23, 01:52:04,VALID,916.343,VALID,0,VALID,96.8326,VALID,0,VALID,20.6015,VALID,52,VALID,0,
2013-04-23, 01:53:04,VALID,916.358,VALID,0,VALID,96.825,VALID,0,VALID,20.5804,VALID,52,VALID,0,
2013-04-23, 01:54:04,VALID,916.363,VALID,0,VALID,96.8098,VALID,0,VALID,20.5804,VALID,52,VALID,0,
2013-04-23, 01:55:04,VALID,916.373,VALID,0,VALID,96.8479,VALID,0,VALID,20.6616,VALID,52,VALID,0,
2013-04-23, 01:56:04,VALID,916.377,VALID,0,VALID,96.8555,VALID,0,VALID,20.639,VALID,52,VALID,0,
2013-04-23, 01:57:04,VALID,916.372,VALID,0,VALID,96.8707,VALID,0,VALID,20.639,VALID,52,VALID,0,
2013-04-23, 01:58:04,VALID,916.388,VALID,0,VALID,96.8631,VALID,0,VALID,20.66,VALID,52,VALID,0,
2013-04-23, 01:59:04,VALID,916.401,VALID,0,VALID,96.8555,VALID,0,VALID,20.66,VALID,52,VALID,0,
2013-04-23, 02:00:04,VALID,916.375,VALID,0,VALID,96.8707,VALID,0,VALID,20.66,VALID,52,VALID,0,
2013-04-23, 02:01:04,VALID,916.39,VALID,0,VALID,96.8784,VALID,0,VALID,20.639,VALID,52,VALID,0,
2013-04-23, 02:02:04,VALID,916.383,VALID,0,VALID,96.8707,VALID,0,VALID,20.6795,VALID,52,VALID,0,
2013-04-23, 02:03:04,VALID,916.403,VALID,0,VALID,96.8707,VALID,0,VALID,20.639,VALID,52,VALID,0,
2013-04-23, 02:04:04,VALID,916.387,VALID,0,VALID,96.8555,VALID,0,VALID,20.6405,VALID,52,VALID,0,
2013-04-23, 02:05:04,VALID,916.42,VALID,0,VALID,96.8936,VALID,0,VALID,20.639,VALID,52,VALID,0,
2013-04-23, 02:06:04,VALID,916.424,VALID,0,VALID,96.8936,VALID,0.107441,VALID,20.6179,VALID,52,VALID,0,
2013-04-23, 02:07:04,VALID,916.38,VALID,0,VALID,96.9012,VALID,0,VALID,20.6795,VALID,52,VALID,0,
2013-04-23, 02:08:04,VALID,916.4,VALID,0,VALID,96.9012,VALID,0,VALID,20.6795,VALID,70,VALID,0,
2013-04-23, 02:09:04,VALID,916.386,VALID,0,VALID,96.9012,VALID,0,VALID,20.678,VALID,68,VALID,0,
2013-04-23, 02:10:04,VALID,916.409,VALID,0,VALID,96.9012,VALID,0,VALID,20.7185,VALID,68,VALID,0,
2013-04-23, 02:11:04,VALID,916.421,VALID,0,VALID,96.9241,VALID,0.107441,VALID,20.717,VALID,69,VALID,0,
2013-04-23, 02:12:04,VALID,916.394,VALID,0,VALID,96.9089,VALID,0,VALID,20.717,VALID,68,VALID,0,
2013-04-23, 02:13:04,VALID,916.404,VALID,0,VALID,96.9012,VALID,0,VALID,20.7381,VALID,68,VALID,0,
2013-04-23, 02:14:04,VALID,916.444,VALID,0,VALID,96.9089,VALID,0,VALID,20.717,VALID,68,VALID,0,
2013-04-23, 02:15:04,VALID,916.452,VALID,0,VALID,96.8936,VALID,0,VALID,20.7576,VALID,68,VALID,0,
2013-04-23, 02:16:04,VALID,916.432,VALID,0,VALID,96.9165,VALID,0,VALID,20.7365,VALID,68,VALID,0,
2013-04-23, 02:17:04,VALID,916.438,VALID,0,VALID,96.9241,VALID,0,VALID,20.7771,VALID,69,VALID,0,
2013-04-23, 02:18:04,VALID,916.43,VALID,0,VALID,96.9317,VALID,0,VALID,20.756,VALID,69,VALID,0,
2013-04-23, 02:19:04,VALID,916.427,VALID,0,VALID,96.9241,VALID,0,VALID,20.756,VALID,68,VALID,0,
2013-04-23, 02:20:04,VALID,916.439,VALID,0,VALID,96.9622,VALID,0,VALID,20.7365,VALID,69,VALID,0,
2013-04-23, 02:21:04,VALID,916.42,VALID,0,VALID,96.9317,VALID,0,VALID,20.7365,VALID,69,VALID,0,
2013-04-23, 02:22:04,VALID,916.434,VALID,0,VALID,96.9317,VALID,0,VALID,20.7365,VALID,69,VALID,0,
2013-04-23, 02:23:04,VALID,916.434,VALID,0,VALID,96.9394,VALID,0,VALID,20.7365,VALID,68,VALID,0,
2013-04-23, 02:24:04,VALID,916.47,VALID,0,VALID,96.947,VALID,0,VALID,20.7365,VALID,69,VALID,0,
2013-04-23, 02:25:04,VALID,916.441,VALID,0,VALID,96.9394,VALID,0,VALID,20.7381,VALID,68,VALID,0,
2013-04-23, 02:26:04,VALID,916.421,VALID,0,VALID,96.9546,VALID,0,VALID,20.7576,VALID,69,VALID,0,
2013-04-23, 02:27:04,VALID,916.402,VALID,0,VALID,96.9317,VALID,0,VALID,20.7365,VALID,68,VALID,0,
2013-04-23, 02:28:04,VALID,916.374,VALID,0,VALID,96.947,VALID,0,VALID,20.7365,VALID,69,VALID,0,
2013-04-23, 02:29:04,VALID,916.361,VALID,0,VALID,96.947,VALID,0,VALID,20.7966,VALID,68,VALID,0,
2013-04-23, 02:30:04,VALID,916.355,VALID,0,VALID,96.9394,VALID,0,VALID,20.8161,VALID,69,VALID,0,
2013-04-23, 02:31:04,VALID,916.31,VALID,0,VALID,96.9622,VALID,0,VALID,20.756,VALID,61,VALID,0,
2013-04-23, 02:32:04,VALID,916.327,VALID,0,VALID,96.9317,VALID,0,VALID,20.756,VALID,61,VALID,0,
2013-04-23, 02:33:04,VALID,916.288,VALID,0,VALID,96.9546,VALID,0,VALID,20.7576,VALID,61,VALID,0,
2013-04-23, 02:34:04,VALID,916.309,VALID,0,VALID,96.9775,VALID,0,VALID,20.7349,VALID,61,VALID,0,
2013-04-23, 02:35:04,VALID,916.286,VALID,0,VALID,96.9394,VALID,0,VALID,20.7755,VALID,58,VALID,0,
2013-04-23, 02:36:04,VALID,916.275,VALID,0,VALID,96.9546,VALID,0,VALID,20.7966,VALID,52,VALID,0,
2013-04-23, 02:37:04,VALID,916.269,VALID,0,VALID,96.9622,VALID,0,VALID,20.8177,VALID,52,VALID,0,
2013-04-23, 02:38:04,VALID,916.222,VALID,0,VALID,96.947,VALID,0,VALID,20.7544,VALID,52,VALID,0,
2013-04-23, 02:39:04,VALID,916.219,VALID,0,VALID,96.9698,VALID,0,VALID,20.7755,VALID,52,VALID,0,
2013-04-23, 02:40:04,VALID,916.204,VALID,0,VALID,96.9851,VALID,0,VALID,20.8372,VALID,52,VALID,0,
2013-04-23, 02:41:04,VALID,916.204,VALID,0,VALID,96.9698,VALID,0,VALID,20.8161,VALID,52,VALID,0,
2013-04-23, 02:42:04,VALID,916.178,VALID,0,VALID,96.9622,VALID,0,VALID,20.8583,VALID,52,VALID,0,
2013-04-23, 02:43:04,VALID,916.196,VALID,0,VALID,96.9622,VALID,0,VALID,20.7723,VALID,52,VALID,0,
2013-04-23, 02:44:04,VALID,916.171,VALID,0,VALID,96.9775,VALID,0,VALID,20.7723,VALID,52,VALID,0,
2013-04-23, 02:45:04,VALID,916.169,VALID,0,VALID,96.9775,VALID,0,VALID,20.8551,VALID,52,VALID,0,
2013-04-23, 02:46:04,VALID,916.193,VALID,0,VALID,96.9775,VALID,0,VALID,20.8129,VALID,52,VALID,0,
2013-04-23, 02:47:04,VALID,916.181,VALID,0,VALID,96.9698,VALID,0,VALID,20.873,VALID,52,VALID,0,
2013-04-23, 02:48:04,VALID,916.234,VALID,0,VALID,96.9851,VALID,0,VALID,20.8324,VALID,52,VALID,0,
2013-04-23, 02:49:04,VALID,916.233,VALID,0,VALID,96.9622,VALID,0,VALID,20.8941,VALID,1,VALID,0,
2013-04-23, 02:50:04,VALID,916.234,VALID,0,VALID,96.9622,VALID,0,VALID,20.8129,VALID,325,VALID,0,
2013-04-23, 02:51:04,VALID,916.236,VALID,0,VALID,96.9775,VALID,0,VALID,20.8551,VALID,330,VALID,0,
2013-04-23, 02:52:04,VALID,916.239,VALID,0,VALID,96.9775,VALID,0,VALID,20.7918,VALID,9,VALID,0,
2013-04-23, 02:53:04,VALID,916.221,VALID,0,VALID,96.9698,VALID,0,VALID,20.7934,VALID,1,VALID,0,
2013-04-23, 02:54:04,VALID,916.211,VALID,0,VALID,96.9775,VALID,0,VALID,20.7513,VALID,11,VALID,0,
2013-04-23, 02:55:04,VALID,916.216,VALID,0,VALID,96.9927,VALID,0,VALID,20.834,VALID,6,VALID,0,
2013-04-23, 02:56:04,VALID,916.213,VALID,0,VALID,96.9851,VALID,0,VALID,20.8551,VALID,335,VALID,0,
2013-04-23, 02:57:04,VALID,916.213,VALID,0,VALID,97.008,VALID,0,VALID,20.834,VALID,360,VALID,0,
2013-04-23, 02:58:04,VALID,916.192,VALID,0,VALID,96.9851,VALID,0,VALID,20.7918,VALID,359,VALID,0,
2013-04-23, 02:59:04,VALID,916.182,VALID,0,VALID,97.0003,VALID,0,VALID,20.8746,VALID,359,VALID,0,
2013-04-23, 03:00:04,VALID,916.18,VALID,0,VALID,97.008,VALID,0,VALID,20.8324,VALID,359,VALID,0,
2013-04-23, 03:01:04,VALID,916.139,VALID,0,VALID,96.9927,VALID,0,VALID,20.8941,VALID,359,VALID,0,
2013-04-23, 03:02:04,VALID,916.156,VALID,0,VALID,97.0156,VALID,0,VALID,20.891,VALID,359,VALID,0,
2013-04-23, 03:03:04,VALID,916.124,VALID,0,VALID,97.0156,VALID,0,VALID,20.9136,VALID,359,VALID,0,
2013-04-23, 03:04:04,VALID,916.11,VALID,0,VALID,97.0156,VALID,0,VALID,20.9316,VALID,359,VALID,0,
2013-04-23, 03:05:04,VALID,916.106,VALID,0,VALID,97.0156,VALID,0,VALID,20.9527,VALID,359,VALID,0,
2013-04-23, 03:06:04,VALID,916.054,VALID,0,VALID,97.0003,VALID,0,VALID,20.9722,VALID,359,VALID,0,
2013-04-23, 03:07:04,VALID,916.07,VALID,0,VALID,97.0003,VALID,0,VALID,21.0144,VALID,359,VALID,0,
2013-04-23, 03:08:04,VALID,916.052,VALID,0,VALID,97.0003,VALID,0,VALID,20.93,VALID,359,VALID,0,
2013-04-23, 03:09:04,VALID,916.029,VALID,0,VALID,97.0003,VALID,0,VALID,20.8878,VALID,359,VALID,0,
2013-04-23, 03:10:04,VALID,915.992,VALID,0,VALID,97.0232,VALID,0,VALID,20.9917,VALID,359,VALID,0,
2013-04-23, 03:11:04,VALID,916.005,VALID,0,VALID,97.008,VALID,0,VALID,20.9933,VALID,22,VALID,0,
2013-04-23, 03:12:04,VALID,916.012,VALID,0,VALID,97.008,VALID,0,VALID,21.0355,VALID,37,VALID,0,
2013-04-23, 03:13:04,VALID,915.988,VALID,0,VALID,97.008,VALID,0,VALID,20.9495,VALID,32,VALID,0,
2013-04-23, 03:14:04,VALID,916.004,VALID,0,VALID,97.008,VALID,0,VALID,20.93,VALID,32,VALID,0,
2013-04-23, 03:15:04,VALID,916.06,VALID,0,VALID,97.0232,VALID,0,VALID,21.0323,VALID,32,VALID,0,
2013-04-23, 03:16:04,VALID,916.021,VALID,0,VALID,97.0003,VALID,0,VALID,21.055,VALID,32,VALID,0,
2013-04-23, 03:17:04,VALID,916.016,VALID,0,VALID,97.008,VALID,0,VALID,20.9917,VALID,32,VALID,0,
2013-04-23, 03:18:04,VALID,916.026,VALID,0,VALID,97.008,VALID,0,VALID,20.9738,VALID,32,VALID,0,
2013-04-23, 03:19:04,VALID,916.012,VALID,0,VALID,97.0156,VALID,0,VALID,21.0128,VALID,32,VALID,0,
2013-04-23, 03:20:04,VALID,916.049,VALID,0,VALID,97.0156,VALID,0,VALID,20.9495,VALID,31,VALID,0,
2013-04-23, 03:21:04,VALID,916.062,VALID,0,VALID,97.0308,VALID,0,VALID,20.9284,VALID,25,VALID,0,
2013-04-23, 03:22:04,VALID,916.054,VALID,0,VALID,97.0156,VALID,0,VALID,20.969,VALID,18,VALID,0,
2013-04-23, 03:23:04,VALID,916.082,VALID,0,VALID,97.0156,VALID,0,VALID,20.9136,VALID,333,VALID,0,
2013-04-23, 03:24:04,VALID,916.075,VALID,0,VALID,97.0156,VALID,0,VALID,20.9168,VALID,20,VALID,0,
2013-04-23, 03:25:04,VALID,916.09,VALID,0,VALID,97.0308,VALID,0,VALID,20.8746,VALID,3,VALID,0,
2013-04-23, 03:26:04,VALID,916.096,VALID,0,VALID,97.0232,VALID,0,VALID,20.8519,VALID,3,VALID,0,
2013-04-23, 03:27:04,VALID,916.09,VALID,0,VALID,97.0308,VALID,0,VALID,20.8941,VALID,3,VALID,0,
2013-04-23, 03:28:04,VALID,916.074,VALID,0,VALID,97.0308,VALID,0,VALID,20.9136,VALID,3,VALID,0,
2013-04-23, 03:29:04,VALID,916.088,VALID,0,VALID,97.0308,VALID,0,VALID,20.8762,VALID,3,VALID,0,
2013-04-23, 03:30:04,VALID,916.085,VALID,0,VALID,97.0232,VALID,0,VALID,20.8309,VALID,3,VALID,0,
2013-04-23, 03:31:04,VALID,916.059,VALID,0,VALID,97.0232,VALID,0,VALID,20.8551,VALID,3,VALID,0,
2013-04-23, 03:32:04,VALID,916.102,VALID,0,VALID,97.0308,VALID,0,VALID,20.834,VALID,3,VALID,0,
2013-04-23, 03:33:04,VALID,916.075,VALID,0,VALID,97.0385,VALID,0,VALID,20.8535,VALID,3,VALID,0,
2013-04-23, 03:34:04,VALID,916.112,VALID,0,VALID,97.0385,VALID,0,VALID,20.8129,VALID,3,VALID,0,
2013-04-23, 03:35:04,VALID,916.125,VALID,0,VALID,97.0385,VALID,0,VALID,20.8567,VALID,3,VALID,0,
2013-04-23, 03:36:04,VALID,916.131,VALID,0,VALID,97.0308,VALID,0.107441,VALID,20.7723,VALID,3,VALID,0,
2013-04-23, 03:37:04,VALID,916.112,VALID,0,VALID,97.0385,VALID,0,VALID,20.8535,VALID,44,VALID,0,
2013-04-23, 03:38:04,VALID,916.106,VALID,0,VALID,97.0385,VALID,0,VALID,20.8324,VALID,44,VALID,0,
2013-04-23, 03:39:04,VALID,916.136,VALID,0,VALID,97.0385,VALID,0,VALID,20.8519,VALID,44,VALID,0,
2013-04-23, 03:40:04,VALID,916.122,VALID,0,VALID,97.0232,VALID,0,VALID,20.8551,VALID,44,VALID,0,
2013-04-23, 03:41:04,VALID,916.128,VALID,0,VALID,97.0308,VALID,0,VALID,20.8714,VALID,40,VALID,0,
2013-04-23, 03:42:04,VALID,916.125,VALID,0,VALID,97.0385,VALID,0,VALID,20.8746,VALID,40,VALID,0,
2013-04-23, 03:43:04,VALID,916.135,VALID,0,VALID,97.0308,VALID,0,VALID,20.873,VALID,40,VALID,0,
2013-04-23, 03:44:04,VALID,916.123,VALID,0,VALID,97.0537,VALID,0,VALID,20.8324,VALID,40,VALID,0,
2013-04-23, 03:45:04,VALID,916.155,VALID,0,VALID,97.0537,VALID,0,VALID,20.8519,VALID,40,VALID,0,
2013-04-23, 03:46:04,VALID,916.156,VALID,0,VALID,97.0537,VALID,0,VALID,20.7739,VALID,120,VALID,0,
2013-04-23, 03:47:04,VALID,916.169,VALID,0,VALID,97.0461,VALID,0,VALID,20.834,VALID,139,VALID,0,
2013-04-23, 03:48:04,VALID,916.175,VALID,0,VALID,97.0308,VALID,0,VALID,20.8129,VALID,185,VALID,0,
2013-04-23, 03:49:04,VALID,916.149,VALID,0,VALID,97.0537,VALID,0,VALID,20.8957,VALID,185,VALID,0,
2013-04-23, 03:50:04,VALID,916.132,VALID,0,VALID,97.0385,VALID,0,VALID,20.8113,VALID,185,VALID,0,
2013-04-23, 03:51:04,VALID,916.124,VALID,0,VALID,97.0461,VALID,0,VALID,20.8324,VALID,185,VALID,0,
2013-04-23, 03:52:04,VALID,916.119,VALID,0,VALID,97.0461,VALID,0,VALID,20.8551,VALID,185,VALID,0,
2013-04-23, 03:53:04,VALID,916.093,VALID,0,VALID,97.0385,VALID,0,VALID,20.8746,VALID,185,VALID,0,
2013-04-23, 03:54:04,VALID,916.098,VALID,0,VALID,97.0461,VALID,0,VALID,20.8535,VALID,180,VALID,0,
2013-04-23, 03:55:04,VALID,916.116,VALID,0,VALID,97.069,VALID,0,VALID,20.8746,VALID,3,VALID,0,
2013-04-23, 03:56:04,VALID,916.113,VALID,0,VALID,97.0461,VALID,0,VALID,20.8746,VALID,24,VALID,0,
2013-04-23, 03:57:04,VALID,916.122,VALID,0,VALID,97.0461,VALID,0.107441,VALID,20.8746,VALID,24,VALID,0,
2013-04-23, 03:58:04,VALID,916.128,VALID,0,VALID,97.0461,VALID,0.107441,VALID,20.8113,VALID,24,VALID,0,
2013-04-23, 03:59:04,VALID,916.132,VALID,0,VALID,97.0385,VALID,0,VALID,20.8324,VALID,228,VALID,0,
2013-04-23, 04:00:04,VALID,916.132,VALID,0,VALID,97.0461,VALID,0.107441,VALID,20.8161,VALID,228,VALID,0,
2013-04-23, 04:01:04,VALID,916.141,VALID,0,VALID,97.0461,VALID,0,VALID,20.7966,VALID,263,VALID,0,
2013-04-23, 04:02:04,VALID,916.128,VALID,0,VALID,97.0613,VALID,0,VALID,20.7966,VALID,245,VALID,0,